DELTA 1 DEB, 26845

Orbit data source: Space-Track

DELTA 1 DEB, 26845 is space debris in SSO originally from a launch on Thu, 12 Jun 1975 UTC launched from the Air Force Western Test Range (AFWTR). Debris objects in space refer to the collection of defunct objects orbiting the Earth. Examples of debris include non-operational satellites, rocket bodies, and fragments generated from explosions, collisions, or faulty payload assembly.

Loading next visibility...
Identifier
26845, 1975-052KZ
Orbit
SSO
Country
Flag of USUS
Related business
Manufacturer
Unknown
Mission
Spacecraft
Bus & Motor
Unknown
Mass
Unknown
Launch date (UTC)
1975-06-12 (50 years ago)
Launch vehicle
Unknown
Launch site
Air Force Western Test Range (AFWTR)
Object type
Payload
Rocket body
Debris
Shape & HBR
Unknown shape, 0.1 m
Radar Cross Section
Small (<0.1 m²)

Expand to show TLE details & history
Last TLE update: 12 hours ago

TLE from 12 hours ago
0 DELTA 1 DEB
1 26845U 75052KZ  25295.32874559  .00000426  00000-0  16714-2 0  9993
2 26845  99.1878 242.9307 0440187  43.2052 107.4604 12.65405647428316
Epoch: 2025-10-22T07:53Z
TLE epoch observation values (Epoch: 2025-10-22T07:53:23.618Z)
Latitude
24.29313°
Longitude
-82.25525°
Altitude
1,519.658 km
Speed
7.054 km/s
True Right ascension
04h 28m 23s
True Declination
24° 10' 37"
Sunlit
Object was in full shadow at epoch
Visualization orbit readout
Latitude
Unknown
Longitude
Unknown
Altitude
Unknown
Speed
Unknown
Apparent Right ascension
Unknown
Apparent Declination
Unknown
Sunlit
N/A
Visualization observer readout
Local Sidereal Time
15:08:42
Azimuth
Unknown
Elevation
Unknown
Doppler factor
Unknown
Orbital elements
Apogee altitude
1,740.395 km
Perigee altitude
1,055.796 km
Semi-major axis
7,776.232 km
Eccentricity
0.04402
Inclination
99.1878°
RAAN
242.9307°
Arg. of periapsis
43.2052°
True anomaly
112.1886°
Mean anomaly
107.4604°
Eccentric anomaly
109.83289°
Mean motion
3.16511 °/min
Orbital period
113.74 mins
BSTAR
0.0016714
Loading maneuver chart data...
Computing Atmospheric mass density...

Documentation

Showing up to 5 results
|